This is the latest recevied weather packets stored in our database for station/object KY4GW. If no packets are shown the sender has not sent any weather packets the latest 10 day(s).
| Time | Temp. | Humidity | Pressure | Rain* | Wind** | Luminosity | Snow |
|---|---|---|---|---|---|---|---|
| 1777422730 | 19.44° C | 82% | 1016.6 hPa | 0 mm | - | 1 W/m² | - |
| 1777422430 | 19.44° C | 82% | 1016.2 hPa | 0 mm | - | 1 W/m² | - |
| 1777422125 | 20° C | 80% | 1016.2 hPa | 0 mm | - | 2 W/m² | - |
| 1777421825 | 20° C | 79% | 1016.2 hPa | 0 mm | - | 3 W/m² | - |
| 1777421520 | 20.56° C | 78% | 1015.8 hPa | 0 mm | - | 4 W/m² | - |
| 1777421216 | 20.56° C | 78% | 1015.8 hPa | 0 mm | - | 7 W/m² | - |
| 1777420913 | 21.11° C | 76% | 1015.8 hPa | 0 mm | - | 12 W/m² | - |
| 1777420609 | 21.11° C | 75% | 1015.8 hPa | 0 mm | - | 16 W/m² | - |
| 1777420306 | 21.67° C | 73% | 1015.8 hPa | 0 mm | - | 20 W/m² | - |
| 1777420001 | 21.67° C | 73% | 1015.8 hPa | 0 mm | - | 26 W/m² | - |
| 1777419698 | 21.67° C | 73% | 1015.8 hPa | 0 mm | - | 26 W/m² | - |
| 1777419396 | 21.67° C | 73% | 1015.8 hPa | 0 mm | - | 30 W/m² | - |
| 1777419096 | 22.22° C | 73% | 1015.8 hPa | 0 mm | - | 33 W/m² | - |
| 1777418794 | 22.22° C | 73% | 1016.2 hPa | 0 mm | - | 37 W/m² | - |
| 1777418492 | 22.22° C | 72% | 1016.2 hPa | 0 mm | - | 43 W/m² | - |
| 1777418188 | 22.78° C | 74% | 1016.2 hPa | 0 mm | - | 49 W/m² | - |
| 1777417884 | 22.78° C | 71% | 1016.2 hPa | 0 mm | - | 52 W/m² | - |
| 1777417581 | 22.78° C | 72% | 1016.2 hPa | 0 mm | - | 60 W/m² | - |
| 1777417276 | 22.78° C | 70% | 1016.2 hPa | 0 mm | - | 68 W/m² | - |
| 1777416973 | 22.78° C | 71% | 1016.2 hPa | 0 mm | - | 75 W/m² | - |
| 1777416672 | 23.33° C | 69% | 1016.2 hPa | 0 mm | - | 83 W/m² | - |
| 1777416369 | 23.33° C | 68% | 1016.2 hPa | 0 mm | - | 80 W/m² | - |
| 1777416063 | 23.33° C | 69% | 1015.8 hPa | 0 mm | - | 68 W/m² | - |
| 1777415758 | 23.33° C | 68% | 1015.8 hPa | 0 mm | - | 70 W/m² | - |
| 1777415454 | 23.89° C | 70% | 1015.1 hPa | 0 mm | - | 82 W/m² | - |
* Rain latest hour (hover to see other rain measurements)
** Current wind speed in m/s (hover to see current wind gust speed)